Location: Forestville
(38.4740°N, 122.8890°W)
Time: 22:06:28
(UTC-07:00)

Amateur Radio Satellites - All Passes

Search period start: 25 July 2014 21:36
Search period end: 26 July 2014 21:36
Location: Forestville, 38.4740°N, 122.8890°W

Satellite Date Start Highest point End Downlink Frequencies (MHz)
Time Altitude Azimuth
MaSat-1 25 Jul 21:55:33 21:59:01 33° 106° (ESE) 22:03:02 437.345 MHz
Oscar 11 25 Jul 21:57:02 22:01:15 58° 74° (ENE) 22:05:30 145.825 FM, Beacon 2401.500 USB
FUNcube-1 25 Jul 22:09:18 22:13:02 28° 70° (ENE) 22:16:41 145.950 - 145.970 MHz USB
UKube-1 25 Jul 22:45:26 22:48:31 19° 266° (W) 22:51:38 145.840 MHz, 145.915 MHz
HO-68 25 Jul 23:11:30 23:15:48 17° 269° (W) 23:20:07 435.675 MHz FM
Lituanica SAT-1 25 Jul 23:13:11 23:15:02 35° 137° (SE) 23:16:54 437.275 MHz beacon
SO-50 25 Jul 23:14:15 23:18:57 61° 242° (WSW) 23:23:42 436.795 FM
AO-40 25 Jul 23:16:18 03:35:02 38° 186° (S) 09:02:55 Beacon 2401.320
RS-15 25 Jul 23:30:51 23:41:57 76° 57° (ENE) 23:53:26 29.354 - 29.394 USB, Beacon 29.352 USB
MaSat-1 25 Jul 23:33:20 23:36:30 21° 308° (NW) 23:40:02 437.345 MHz
Oscar 11 25 Jul 23:36:42 23:37:47 11° 269° (W) 23:38:53 145.825 FM, Beacon 2401.500 USB
FUNcube-1 25 Jul 23:45:54 23:49:23 23° 265° (W) 23:52:50 145.950 - 145.970 MHz USB
ISS 25 Jul 23:50:50 23:52:22 13° 128° (SE) 23:53:55 145.800 FM
UOSAT-12 25 Jul 23:54:25 23:58:32 29° 50° (NE) 00:02:35 437.025 FM, 437.400 FM
Lituanica SAT-1 26 Jul 00:47:02 00:47:35 11° 333° (NNW) 00:48:07 437.275 MHz beacon
Sapphire 26 Jul 00:55:04 00:59:10 23° 106° (ESE) 01:03:17 437.095 MHz 1200 baud AX-25 AFSK
ISS 26 Jul 01:25:24 01:28:42 62° 323° (NW) 01:32:02 145.800 FM
PCSat 26 Jul 01:27:32 01:32:42 49° 112° (ESE) 01:37:54 145.825 MHz
Oscar 19 26 Jul 01:30:16 01:32:22 12° 90° (E) 01:34:28 437.125 CW, 437.150 USB
UOSAT-12 26 Jul 01:34:28 01:38:41 33° 247° (WSW) 01:42:49 437.025 FM, 437.400 FM
RS-15 26 Jul 01:44:32 01:53:14 28° 256° (WSW) 02:02:14 29.354 - 29.394 USB, Beacon 29.352 USB
Oscar 16 26 Jul 01:56:18 02:00:30 25° 95° (E) 02:04:41 437.025 USB, Beacon 2401.1428
ITAMSAT 1 26 Jul 02:11:30 02:14:13 14° 91° (E) 02:16:54 435.822 SSB
AO-Echo 26 Jul 02:12:14 02:15:03 15° 91° (E) 02:17:50 ?
AO-27 26 Jul 02:28:46 02:32:46 22° 94° (E) 02:36:44 436.795 MHz FM
Uribyol 2 26 Jul 02:30:38 02:34:46 24° 95° (E) 02:38:53 436.500 FM
Sapphire 26 Jul 02:37:04 02:42:14 46° 303° (WNW) 02:47:28 437.095 MHz 1200 baud AX-25 AFSK
Oscar 10/S400 26 Jul 02:44:01 03:31:42 65° 197° (SSW) 12:29:52 145.825 - 145.975 CW/USB, Beacon 145.810 USB
ISS 26 Jul 03:04:08 03:05:59 14° 341° (NNW) 03:07:49 145.800 FM
Oscar 19 26 Jul 03:07:02 03:12:11 71° 286° (WNW) 03:17:19 437.125 CW, 437.150 USB
PCSat 26 Jul 03:12:01 03:16:21 24° 310° (NW) 03:20:43 145.825 MHz
JAS-1B 26 Jul 03:13:58 03:22:51 44° 95° (E) 03:30:32 435.800 - 435.900 CW/SSB
Oscar 16 26 Jul 03:35:12 03:39:53 36° 290° (WNW) 03:44:35 437.025 USB, Beacon 2401.1428
ITAMSAT 1 26 Jul 03:48:59 03:54:06 62° 287° (WNW) 03:59:11 435.822 SSB
OPAL 26 Jul 03:49:07 03:53:47 44° 69° (ENE) 03:58:28 ?
AO-Echo 26 Jul 03:49:13 03:54:13 57° 287° (WNW) 03:59:02 ?
TMSAT-1 26 Jul 03:49:24 03:54:21 39° 98° (E) 03:59:14 436.925 FM
AO-27 26 Jul 04:07:34 04:12:24 41° 290° (WNW) 04:17:13 436.795 MHz FM
Uosat F 26 Jul 04:07:45 04:08:54 11° 90° (E) 04:10:04 435.120 FM
Uribyol 2 26 Jul 04:09:35 04:14:19 37° 290° (WNW) 04:19:01 436.500 FM
Gurwin Techsat 1B 26 Jul 04:11:25 04:16:46 87° 104° (ESE) 04:22:04 435.225 FM
AO-7 26 Jul 04:48:40 04:56:06 35° 98° (E) 05:03:27 29.400 - 29.500 MHz
JAS-1B 26 Jul 05:04:24 05:13:14 44° 296° (WNW) 05:20:59 435.800 - 435.900 CW/SSB
Lituanica SAT-1 26 Jul 05:26:03 05:27:27 16° 31° (NNE) 05:28:51 437.275 MHz beacon
KITSAT 1 26 Jul 05:27:29 05:31:05 14° 99° (E) 05:34:40 435.175 FM
OPAL 26 Jul 05:29:20 05:32:50 19° 264° (W) 05:36:22 ?
TMSAT-1 26 Jul 05:29:47 05:34:02 25° 294° (WNW) 05:38:15 436.925 FM
Uosat F 26 Jul 05:43:11 05:48:13 76° 286° (WNW) 05:53:12 435.120 FM
Gurwin Techsat 1B 26 Jul 05:54:09 05:55:57 12° 300° (WNW) 05:57:44 435.225 FM
STRAND 1 26 Jul 06:07:56 06:11:51 23° 66° (ENE) 06:15:47 ?
MaSat-1 26 Jul 06:17:16 06:18:34 11° 45° (NE) 06:19:52 437.345 MHz
ISS 26 Jul 06:19:30 06:21:47 17° 22° (NNE) 06:24:04 145.800 FM
AO-7 26 Jul 06:41:06 06:49:02 50° 295° (WNW) 06:56:54 29.400 - 29.500 MHz
JAS-2 26 Jul 06:50:05 06:55:25 33° 94° (E) 07:00:16 435.800 - 435.900 CW/SSB, 435.910 FM
Hamsat 26 Jul 06:56:30 07:00:42 51° 100° (E) 07:04:54 145.90 MHz
Lituanica SAT-1 26 Jul 06:58:17 06:59:45 17° 226° (SW) 07:01:12 437.275 MHz beacon
PANSAT 26 Jul 07:15:09 07:17:34 16° 171° (S) 07:19:59 not established
KITSAT 1 26 Jul 07:17:06 07:25:11 80° 116° (ESE) 07:33:18 435.175 FM
Saudisat 1A 26 Jul 07:43:58 07:46:55 18° 110° (ESE) 07:49:52 436.775 MHz
STRAND 1 26 Jul 07:45:54 07:50:45 42° 261° (W) 07:55:37 ?
MaSat-1 26 Jul 07:51:38 07:56:57 67° 64° (ENE) 08:01:59 437.345 MHz
SO-67 26 Jul 07:54:47 07:57:56 32° 97° (E) 08:01:05 435.3500 MHz FM
ISS 26 Jul 07:55:31 07:58:53 85° 220° (SW) 08:02:14 145.800 FM
Hamsat 26 Jul 08:34:07 08:36:13 14° 295° (WNW) 08:38:19 145.90 MHz
JAS-2 26 Jul 08:35:10 08:40:27 32° 295° (WNW) 08:45:14 435.800 - 435.900 CW/SSB, 435.910 FM
AO-7 26 Jul 08:39:40 08:39:49 10° 316° (NW) 08:39:58 29.400 - 29.500 MHz
HO-68 26 Jul 08:51:54 08:55:47 15° 90° (E) 08:59:40 435.675 MHz FM
PANSAT 26 Jul 08:54:29 08:57:09 18° 184° (S) 08:59:48 not established
KITSAT 1 26 Jul 09:14:56 09:21:27 26° 317° (NW) 09:27:59 435.175 FM
Saudisat 1A 26 Jul 09:21:56 09:26:09 44° 306° (NW) 09:30:24 436.775 MHz
SO-67 26 Jul 09:29:04 09:30:42 13° 292° (WNW) 09:32:19 435.3500 MHz FM
MaSat-1 26 Jul 09:30:51 09:33:39 15° 261° (W) 09:36:21 437.345 MHz
Sapphire 26 Jul 09:44:14 09:47:35 16° 45° (NE) 09:50:54 437.095 MHz 1200 baud AX-25 AFSK
Oscar 11 26 Jul 09:48:17 09:49:53 12° 91° (E) 09:51:29 145.825 FM, Beacon 2401.500 USB
PCSat 26 Jul 10:17:04 10:21:49 30° 53° (NE) 10:26:33 145.825 MHz
UKube-1 26 Jul 10:33:39 10:38:02 82° 103° (ESE) 10:42:22 145.840 MHz, 145.915 MHz
PANSAT 26 Jul 10:35:46 10:36:39 11° 197° (SSW) 10:37:32 not established
HO-68 26 Jul 10:37:05 10:44:15 86° 287° (WNW) 10:51:24 435.675 MHz FM
Oscar 11 26 Jul 11:22:09 11:26:23 54° 286° (WNW) 11:30:36 145.825 FM, Beacon 2401.500 USB
Sapphire 26 Jul 11:26:13 11:31:39 80° 244° (WSW) 11:37:03 437.095 MHz 1200 baud AX-25 AFSK
FUNcube-1 26 Jul 11:35:25 11:39:35 73° 102° (ESE) 11:43:46 145.950 - 145.970 MHz USB
PCSat 26 Jul 12:00:19 12:05:16 37° 250° (WSW) 12:10:12 145.825 MHz
HO-68 26 Jul 12:26:56 12:30:55 16° 305° (NW) 12:34:55 435.675 MHz FM
Oscar 19 26 Jul 12:45:34 12:48:45 17° 63° (ENE) 12:51:57 437.125 CW, 437.150 USB
Oscar 16 26 Jul 13:11:55 13:16:23 31° 68° (ENE) 13:20:52 437.025 USB, Beacon 2401.1428
AO-Echo 26 Jul 13:23:18 13:26:57 19° 64° (ENE) 13:30:38 ?
SO-50 26 Jul 13:27:47 13:32:10 63° 118° (ESE) 13:36:40 436.795 FM
ITAMSAT 1 26 Jul 13:27:51 13:31:36 21° 65° (ENE) 13:35:22 435.822 SSB
AO-27 26 Jul 13:45:25 13:49:55 30° 68° (ENE) 13:54:26 436.795 MHz FM
Uribyol 2 26 Jul 13:47:02 13:51:37 32° 68° (ENE) 13:56:12 436.500 FM
RS-15 26 Jul 13:52:10 14:02:58 57° 112° (ESE) 14:13:30 29.354 - 29.394 USB, Beacon 29.352 USB
Gurwin Techsat 1B 26 Jul 13:54:12 13:57:04 15° 62° (ENE) 13:59:55 435.225 FM
JAS-1B 26 Jul 13:55:15 14:02:58 35° 61° (ENE) 14:11:24 435.800 - 435.900 CW/SSB
UOSAT-12 26 Jul 14:08:07 14:08:42 10° 106° (ESE) 14:09:18 437.025 FM, 437.400 FM
Oscar 19 26 Jul 14:22:37 14:27:37 56° 259° (W) 14:32:39 437.125 CW, 437.150 USB
Oscar 16 26 Jul 14:51:19 14:55:41 28° 264° (W) 15:00:05 437.025 USB, Beacon 2401.1428
AO-Echo 26 Jul 15:00:07 15:05:16 53° 260° (W) 15:10:29 ?
ITAMSAT 1 26 Jul 15:05:42 15:10:44 48° 260° (W) 15:15:46 435.822 SSB
TMSAT-1 26 Jul 15:08:40 15:13:47 52° 72° (ENE) 15:18:56 436.925 FM
SO-50 26 Jul 15:10:20 15:13:10 16° 316° (NW) 15:16:03 436.795 FM
KITSAT 1 26 Jul 15:12:24 15:19:27 32° 46° (NE) 15:26:27 435.175 FM
Uosat F 26 Jul 15:18:59 15:21:44 15° 62° (ENE) 15:24:29 435.120 FM
AO-27 26 Jul 15:24:45 15:29:20 31° 263° (W) 15:33:57 436.795 MHz FM
Uribyol 2 26 Jul 15:26:36 15:31:03 29° 264° (W) 15:35:31 436.500 FM
Gurwin Techsat 1B 26 Jul 15:31:07 15:36:24 70° 258° (WSW) 15:41:43 435.225 FM
UOSAT-12 26 Jul 15:43:33 15:48:08 78° 302° (WNW) 15:52:50 437.025 FM, 437.400 FM
JAS-1B 26 Jul 15:44:25 15:52:48 60° 261° (W) 16:02:24 435.800 - 435.900 CW/SSB
AO-7 26 Jul 15:45:56 15:53:38 43° 63° (ENE) 16:01:20 29.400 - 29.500 MHz
OPAL 26 Jul 16:02:14 16:04:24 13° 93° (E) 16:06:35 ?
RS-15 26 Jul 16:05:17 16:15:37 43° 314° (NW) 16:25:52 29.354 - 29.394 USB, Beacon 29.352 USB
Saudisat 1A 26 Jul 16:12:08 16:14:02 12° 41° (NE) 16:15:56 436.775 MHz
TMSAT-1 26 Jul 16:50:29 16:53:59 18° 268° (W) 16:57:31 436.925 FM
Uosat F 26 Jul 16:54:57 16:59:57 64° 258° (WSW) 17:04:59 435.120 FM
JAS-2 26 Jul 17:00:49 17:05:40 18° 59° (ENE) 17:10:21 435.800 - 435.900 CW/SSB, 435.910 FM
KITSAT 1 26 Jul 17:07:24 17:15:20 63° 247° (WSW) 17:23:13 435.175 FM
UOSAT-12 26 Jul 17:27:25 17:29:06 12° 321° (NW) 17:30:47 437.025 FM, 437.400 FM
AO-7 26 Jul 17:38:35 17:46:20 42° 260° (W) 17:54:10 29.400 - 29.500 MHz
OPAL 26 Jul 17:38:40 17:43:42 69° 288° (WNW) 17:48:47 ?
Hamsat 26 Jul 17:48:50 17:52:28 30° 71° (ENE) 17:56:08 145.90 MHz
Saudisat 1A 26 Jul 17:49:48 17:54:14 86° 240° (WSW) 17:58:37 436.775 MHz
RS-15 26 Jul 18:25:24 18:32:05 17° 347° (NNW) 18:38:47 29.354 - 29.394 USB, Beacon 29.352 USB
JAS-2 26 Jul 18:41:53 18:49:46 88° 75° (ENE) 18:57:17 435.800 - 435.900 CW/SSB, 435.910 FM
HO-68 26 Jul 19:22:25 19:24:16 11° 51° (NE) 19:26:08 435.675 MHz FM
Hamsat 26 Jul 19:25:23 19:28:27 20° 266° (W) 19:31:33 145.90 MHz
STRAND 1 26 Jul 19:57:40 20:02:47 75° 103° (ESE) 20:07:52 ?
SO-67 26 Jul 19:59:08 20:02:27 44° 261° (W) 20:05:48 435.3500 MHz FM
JAS-2 26 Jul 20:30:39 20:35:24 17° 271° (W) 20:40:04 435.800 - 435.900 CW/SSB, 435.910 FM
RS-15 26 Jul 20:42:39 20:50:29 21° 24° (NNE) 20:58:24 29.354 - 29.394 USB, Beacon 29.352 USB
HO-68 26 Jul 21:03:31 21:10:34 63° 70° (ENE) 21:17:37 435.675 MHz FM
UKube-1 26 Jul 21:27:36 21:31:53 59° 74° (ENE) 21:36:12 145.840 MHz, 145.915 MHz
